Hourly Weather Roundup
Issued by NWS Central Illinois

Home | Current Version | Previous Version | Text Only | Print | Product List | Glossary On
Versions: 1 2 3 4 5 6 7 8 9 10 11 12 13 14 15 16 17 18 19 20 21 22 23 24 25 26 27 28 29 30 31 32 33 34 35 36 37 38 39 40 41 42 43 44 45 46 47 48 49 50
000
NZUS43 KILX 012210
HWRILX

AREA WEATHER ROUNDUP
NATIONAL WEATHER SERVICE, LINCOLN IL
500 PM CDT WED APR 01 2015


CITY           SKY/WX    TMP DP  RH WIND       PRES   REMARKS
BLOOMINGTON    SUNNY     73  41  31 S22       29.93F
CHAMPAIGN      SUNNY     72  38  29 SE17G25   29.96F
DECATUR        MOSUNNY   72  39  30 S21G26    29.95F
EFFINGHAM      MOSUNNY   73  34  24 SE18G24   29.99F
FLORA          MOSUNNY   71  40  33 SE10      29.99F
GALESBURG      SUNNY     75  36  24 S21       29.84F
JACKSONVILLE   PTSUNNY   76  36  23 S20G26    29.89F
LACON          SUNNY     75  34  22 S24G30    29.87S
LAWRENCEVILLE  MOSUNNY   72  38  29 SE12      30.01F
LITCHFIELD     MOSUNNY   72  38  29 SE22      29.93F
$$


CITY           SKY/WX    TMP DP  RH WIND       PRES   REMARKS
LINCOLN        MOSUNNY   74  37  26 S17G25    29.90F
MACOMB         MOSUNNY   77  34  20 S28G33    29.87S
MATTOON        SUNNY     68  40  35 S16       29.97F
MT CARMEL AP   MOSUNNY   73  32  21 S14       30.00F
OLNEY-NOBLE AP MOSUNNY   70  41  35 SE12G20   30.00S
PARIS          MOSUNNY   68  41  36 S16G22    30.00S
PEORIA         SUNNY     76  36  23 S23G30    29.88F
PONTIAC        SUNNY     75  39  27 S20G26    29.92F
RANTOUL        SUNNY     73  39  29 S17       29.96F
ROBINSON       MOSUNNY   71  37  29 SE9       30.01F
SPRINGFIELD    MOSUNNY   73  40  30 S22       29.91F
TAYLORVILLE    PTSUNNY   72  39  30 S18G26    29.93F
$$

...REGIONAL REPORTS...


CITY           SKY/WX    TMP DP  RH WIND       PRES   REMARKS
CHICAGO O`HARE PTSUNNY   72  35  25 S18       29.88F
KANKAKEE       SUNNY     72  40  31 S17G24    29.94F
MOLINE         SUNNY     78  32  18 S21G32    29.79F
MOUNT VERNON   MOSUNNY   75  37  25 SE13G20   29.98S
PITTSFIELD     MOSUNNY   76  37  23 SE20G25   29.88S
QUINCY         MOSUNNY   74  35  24 S18G29    29.84F
ROCKFORD       PTSUNNY   76  33  21 S25G33    29.84F
$$


CITY           SKY/WX    TMP DP  RH WIND       PRES   REMARKS
BURLINGTON     MOSUNNY   77  36  22 S21G28    29.81F
CEDAR RAPIDS   SUNNY     77  33  20 S24G31    29.73F
DES MOINES     MOSUNNY   82  41  23 S29G38    29.67F HX  80
KIRKSVILLE     MOSUNNY   78  45  30 S22G31    29.79F
OTTUMWA        SUNNY     77  38  24 S24G33    29.74F
ST LOUIS       PTSUNNY   77  38  24 SE20G29   29.91F
$$


CITY           SKY/WX    TMP DP  RH WIND       PRES   REMARKS
TERRE HAUTE    MOSUNNY   69  37  30 S12       30.01F
EVANSVILLE     MOSUNNY   73  35  25 SE9       30.02S
INDIANAPOLIS   MOSUNNY   68  32  26 SE13G24   30.01F
LAFAYETTE      SUNNY     69  35  28 S12       29.99F
MADISON        MOSUNNY   75  35  23 S20G30    29.76F
MILWAUKEE      PTSUNNY   60  37  42 SE15      29.86F
$$




USA.gov is the U.S. government's official web portal to all federal, state and local government web resources and services.